Flag for Germany Weather past 2 weeks in Wilhelmshaven, Lower Saxony, Germany

Now
63 °F

Fog.


Feels Like: 63 °F
Forecast: 59 / 63 °F
Wind: 6 mph from Northwest

Location: Wittmundhaven

Current Time: Sep 20, 2014 at 10:46:38 PM

Latest Report: Sep 20, 2014 at 9:20 PM


Visibility: 2 mi

Pressure: 29.95 "Hg

Humidity: 94%

Dew point: 61 °F

Location of WilhelmshavenLocation

Historic Weather in Wilhelmshaven — Graph

°F

Wilhelmshaven temperature yesterday

Maximum temperature yesterday: 75 °F (at 3:20 PM)
Minimum temperature yesterday: 55 °F (at 5:20 AM)
Average temperature yesterday: 65 °F

Past Weeks' High & Low Weather Summary

 TemperatureHumidityPressure
High75 °F (Sep 17, 3:20 PM)100% (Sep 5, 11:20 PM)30.30 "Hg (Sep 5, 11:20 PM)
Low48 °F (Sep 12, 4:20 AM)57% (Sep 17, 3:20 PM)29.86 "Hg (Sep 6, 5:20 PM)
Average62 °F85%30.04 "Hg
* Reported Sep 5 9:20 PM — Sep 20 9:20 PM, Wilhelmshaven, Weather by CustomWeather, © 2014

Note: Actual official high and low records may vary slightly from our data, if they occured in-between our weather recording intervals... More about our weather records

Advertising

Wilhelmshaven weather history for previous 24 hours

 ConditionsComfort  
Time TempWeatherWind HumidityBarometerVisibility
9:20 PM
Sep 20
63 °FFog.6 mph94%29.95 "Hg1 mi
8:20 PM66 °FThundershowers. Partly sunny.5 mph83%29.92 "Hg4 mi
7:20 PM68 °FBroken clouds.3 mph78%29.92 "Hg6 mi
3:20 PM72 °FBroken clouds.3 mph69%29.92 "HgN/A
2:20 PM72 °FScattered clouds.3 mph65%29.92 "HgN/A
1:20 PM73 °FScattered clouds.5 mph61%29.92 "HgN/A
12:20 PM72 °FPassing clouds.2 mph65%29.92 "HgN/A
11:20 AM68 °FScattered clouds.2 mph78%29.95 "HgN/A
10:20 AM63 °FScattered clouds.No wind88%29.95 "Hg4 mi
9:57 AM61 °FFog.No wind94%29.95 "Hg2 mi
9:20 AM54 °FFog.2 mph100%29.92 "Hg0 mi
8:20 AM54 °FFog.No wind100%29.92 "Hg0 mi
7:20 AM54 °FFog.2 mph100%29.92 "Hg0 mi
6:20 AM55 °FFog.3 mph100%29.92 "Hg1 mi
4:20 AM57 °FFog.5 mph94%29.92 "Hg2 mi
3:20 AM55 °FFog.3 mph100%29.92 "Hg2 mi
2:20 AM57 °FFog.2 mph94%29.92 "Hg2 mi
1:20 AM61 °FFog.2 mph88%29.92 "Hg3 mi
12:20 AM63 °FPassing clouds.3 mph88%29.92 "Hg4 mi
11:20 PM
Sep 19
63 °FPassing clouds.6 mph94%29.92 "Hg4 mi
10:20 PM64 °FPassing clouds.5 mph88%29.92 "Hg5 mi
Weather by CustomWeather, © 2014

See weather overviewHow to use our weather pages